• Em Portugal
  • Lista de países
  • Para 7 dias
  • Temperatura da água
  • Mapas de satélite
  • Mapa do tempo
  • Widgets de tempo
  • user-avatar
    Iniciar Sessão

    Previsão horária em Bengazi

    Hoje, 24 Fevereiro, Sábado

    Tempo Temperatura Precipitação Vento Pressão Humidade
    00:00 +15°C° 0 mm 7 m/s 757 mmHg 63%
    01:00 +15°C° 0 mm 6 m/s 757 mmHg 66%
    02:00 +15°C° 0 mm 6 m/s 758 mmHg 66%
    03:00 +14°C° 0 mm 6 m/s 758 mmHg 67%
    04:00 +14°C° 0 mm 6 m/s 758 mmHg 68%
    05:00 +14°C° 0 mm 6 m/s 758 mmHg 67%
    06:00 +14°C° 0 mm 6 m/s 758 mmHg 66%
    07:00 +14°C° 0 mm 6 m/s 759 mmHg 65%
    08:00 +15°C° 0 mm 6 m/s 759 mmHg 60%
    09:00 +16°C° 0 mm 6 m/s 759 mmHg 55%
    10:00 +17°C° 0 mm 7 m/s 760 mmHg 51%
    11:00 +17°C° 0 mm 7 m/s 760 mmHg 48%
    12:00 +17°C° 0 mm 6 m/s 759 mmHg 46%
    13:00 +19°C° 0 mm 6 m/s 759 mmHg 43%
    14:00 +19°C° 0 mm 6 m/s 759 mmHg 44%
    15:00 +17°C° 0 mm 6 m/s 759 mmHg 46%
    16:00 +17°C° 0 mm 5 m/s 759 mmHg 47%
    17:00 +17°C° 0 mm 5 m/s 759 mmHg 49%
    18:00 +17°C° 0 mm 4 m/s 759 mmHg 52%
    19:00 +17°C° 0 mm 4 m/s 759 mmHg 55%
    20:00 +17°C° 0 mm 3 m/s 760 mmHg 55%
    21:00 +17°C° 0 mm 3 m/s 760 mmHg 56%
    22:00 +17°C° 0 mm 2 m/s 760 mmHg 57%
    23:00 +16°C° 0 mm 2 m/s 760 mmHg 58%

    Amanhã, 25 Fevereiro, Domingo

    Tempo Temperatura Precipitação Vento Pressão Humidade
    00:00 +16°C° 0 mm 2 m/s 760 mmHg 59%
    01:00 +16°C° 0 mm 2 m/s 759 mmHg 60%
    02:00 +16°C° 0 mm 3 m/s 759 mmHg 59%
    03:00 +16°C° 0 mm 3 m/s 759 mmHg 58%
    04:00 +15°C° 0 mm 4 m/s 758 mmHg 57%
    05:00 +15°C° 0 mm 5 m/s 758 mmHg 56%
    06:00 +15°C° 0 mm 6 m/s 758 mmHg 55%
    07:00 +15°C° 0 mm 7 m/s 758 mmHg 54%
    08:00 +16°C° 0 mm 8 m/s 758 mmHg 50%
    09:00 +17°C° 0 mm 9 m/s 757 mmHg 46%
    10:00 +17°C° 0 mm 11 m/s 757 mmHg 42%
    11:00 +18°C° 0 mm 11 m/s 756 mmHg 42%
    12:00 +19°C° 0 mm 12 m/s 756 mmHg 42%
    13:00 +21°C° 0 mm 12 m/s 755 mmHg 41%
    14:00 +19°C° 0,3 mm 10 m/s 755 mmHg 48%
    15:00 +20°C° 0,3 mm 8 m/s 754 mmHg 55%
    16:00 +19°C° 0,3 mm 6 m/s 754 mmHg 62%
    17:00 +19°C° 0 mm 6 m/s 754 mmHg 66%
    18:00 +17°C° 0 mm 5 m/s 754 mmHg 70%
    19:00 +18°C° 0 mm 4 m/s 754 mmHg 74%
    20:00 +18°C° 0 mm 4 m/s 754 mmHg 74%
    21:00 +18°C° 0 mm 4 m/s 754 mmHg 74%
    22:00 +17°C° 0 mm 4 m/s 755 mmHg 74%
    23:00 +17°C° 0 mm 4 m/s 754 mmHg 73%

    Depois de amanhã, 26 Fevereiro, Segunda-feira

    Tempo Temperatura Precipitação Vento Pressão Humidade
    00:00 +16°C° 0 mm 5 m/s 754 mmHg 72%
    01:00 +17°C° 0 mm 5 m/s 754 mmHg 70%
    02:00 +16°C° 0,2 mm 6 m/s 754 mmHg 74%
    03:00 +16°C° 0,2 mm 7 m/s 754 mmHg 77%
    04:00 +16°C° 0,2 mm 8 m/s 754 mmHg 81%
    05:00 +16°C° 0,1 mm 8 m/s 754 mmHg 78%
    06:00 +16°C° 0,1 mm 8 m/s 755 mmHg 76%
    07:00 +16°C° 0,1 mm 8 m/s 755 mmHg 74%
    08:00 +16°C° 0 mm 9 m/s 756 mmHg 69%
    09:00 +16°C° 0 mm 9 m/s 756 mmHg 64%
    10:00 +17°C° 0 mm 10 m/s 757 mmHg 59%
    11:00 +17°C° 0 mm 10 m/s 757 mmHg 57%
    12:00 +17°C° 0 mm 9 m/s 757 mmHg 54%
    13:00 +17°C° 0 mm 9 m/s 757 mmHg 52%
    14:00 +17°C° 0 mm 9 m/s 757 mmHg 54%
    15:00 +17°C° 0 mm 9 m/s 757 mmHg 57%
    16:00 +16°C° 0 mm 9 m/s 757 mmHg 59%
    17:00 +16°C° 0 mm 8 m/s 757 mmHg 61%
    18:00 +16°C° 0 mm 8 m/s 758 mmHg 63%
    19:00 +15°C° 0 mm 7 m/s 758 mmHg 65%
    20:00 +15°C° 0 mm 7 m/s 758 mmHg 66%
    21:00 +15°C° 0 mm 6 m/s 759 mmHg 67%
    22:00 +15°C° 0 mm 6 m/s 759 mmHg 69%
    23:00 +15°C° 0 mm 5 m/s 759 mmHg 69%

    27 Fevereiro, Terça-feira

    Tempo Temperatura Precipitação Vento Pressão Humidade
    00:00 +15°C° 0 mm 4 m/s 759 mmHg 70%
    01:00 +14°C° 0 mm 4 m/s 758 mmHg 71%
    02:00 +14°C° 0 mm 3 m/s 758 mmHg 71%
    03:00 +14°C° 0 mm 3 m/s 758 mmHg 71%
    04:00 +15°C° 0 mm 2 m/s 758 mmHg 71%
    05:00 +14°C° 0 mm 3 m/s 758 mmHg 70%
    06:00 +14°C° 0 mm 3 m/s 758 mmHg 70%
    07:00 +14°C° 0 mm 3 m/s 759 mmHg 69%
    08:00 +15°C° 0 mm 5 m/s 759 mmHg 66%
    09:00 +16°C° 0 mm 6 m/s 759 mmHg 63%
    10:00 +17°C° 0 mm 7 m/s 759 mmHg 59%
    11:00 +18°C° 0 mm 8 m/s 758 mmHg 55%
    12:00 +18°C° 0 mm 8 m/s 758 mmHg 51%
    13:00 +19°C° 0 mm 9 m/s 757 mmHg 47%
    14:00 +21°C° 0 mm 8 m/s 757 mmHg 44%
    15:00 +21°C° 0 mm 8 m/s 756 mmHg 42%
    16:00 +21°C° 0 mm 8 m/s 756 mmHg 40%
    17:00 +21°C° 0 mm 8 m/s 756 mmHg 41%
    18:00 +20°C° 0 mm 8 m/s 756 mmHg 42%
    19:00 +20°C° 0 mm 8 m/s 756 mmHg 43%
    20:00 +19°C° 0,1 mm 9 m/s 756 mmHg 43%
    21:00 +19°C° 0,1 mm 10 m/s 755 mmHg 43%
    22:00 +18°C° 0,1 mm 11 m/s 755 mmHg 44%
    23:00 +18°C° 0 mm 11 m/s 754 mmHg 44%

    28 Fevereiro, Quarta-feira

    Tempo Temperatura Precipitação Vento Pressão Humidade
    00:00 +18°C° 0 mm 11 m/s 754 mmHg 43%
    01:00 +18°C° 0 mm 12 m/s 753 mmHg 43%
    02:00 +18°C° 0 mm 11 m/s 753 mmHg 46%
    03:00 +18°C° 0 mm 11 m/s 753 mmHg 48%
    04:00 +18°C° 0 mm 10 m/s 752 mmHg 51%
    05:00 +18°C° 0 mm 10 m/s 753 mmHg 57%
    06:00 +18°C° 0 mm 9 m/s 753 mmHg 64%
    07:00 +18°C° 0 mm 8 m/s 754 mmHg 71%
    08:00 +20°C° 0 mm 8 m/s 755 mmHg 67%
    09:00 +19°C° 0 mm 9 m/s 755 mmHg 64%
    10:00 +21°C° 0 mm 9 m/s 756 mmHg 60%
    11:00 +21°C° 0 mm 9 m/s 757 mmHg 60%
    12:00 +22°C° 0 mm 8 m/s 757 mmHg 59%
    13:00 +22°C° 0 mm 8 m/s 757 mmHg 59%
    14:00 +21°C° 0 mm 8 m/s 758 mmHg 63%
    15:00 +20°C° 0 mm 8 m/s 759 mmHg 67%
    16:00 +20°C° 0 mm 8 m/s 759 mmHg 71%
    17:00 +18°C° 0 mm 8 m/s 760 mmHg 73%
    18:00 +17°C° 0 mm 8 m/s 761 mmHg 75%
    19:00 +17°C° 0 mm 8 m/s 761 mmHg 77%
    20:00 +16°C° 0 mm 7 m/s 762 mmHg 77%
    21:00 +16°C° 0 mm 7 m/s 762 mmHg 78%
    22:00 +16°C° 0 mm 6 m/s 763 mmHg 78%
    23:00 +15°C° 0 mm 6 m/s 763 mmHg 78%

    1 Março, Quinta-feira

    Tempo Temperatura Precipitação Vento Pressão Humidade
    00:00 +15°C° 0 mm 6 m/s 763 mmHg 77%
    01:00 +15°C° 0 mm 6 m/s 764 mmHg 77%
    02:00 +15°C° 0 mm 6 m/s 763 mmHg 77%
    03:00 +14°C° 0 mm 5 m/s 763 mmHg 77%
    04:00 +14°C° 0 mm 5 m/s 763 mmHg 77%
    05:00 +14°C° 0 mm 4 m/s 764 mmHg 76%
    06:00 +14°C° 0 mm 4 m/s 764 mmHg 74%
    07:00 +14°C° 0 mm 4 m/s 764 mmHg 72%
    08:00 +15°C° 0 mm 4 m/s 764 mmHg 65%
    09:00 +17°C° 0 mm 3 m/s 764 mmHg 57%
    10:00 +19°C° 0 mm 3 m/s 765 mmHg 49%
    11:00 +19°C° 0 mm 2 m/s 764 mmHg 46%
    12:00 +20°C° 0 mm 2 m/s 764 mmHg 43%
    13:00 +21°C° 0 mm 2 m/s 763 mmHg 41%
    14:00 +21°C° 0 mm 2 m/s 763 mmHg 43%
    15:00 +21°C° 0 mm 3 m/s 763 mmHg 45%
    16:00 +21°C° 0 mm 3 m/s 763 mmHg 47%
    17:00 +20°C° 0 mm 3 m/s 763 mmHg 52%
    18:00 +19°C° 0 mm 3 m/s 763 mmHg 57%
    19:00 +19°C° 0 mm 3 m/s 763 mmHg 62%
    20:00 +18°C° 0 mm 3 m/s 763 mmHg 62%
    21:00 +18°C° 0 mm 3 m/s 763 mmHg 61%
    22:00 +18°C° 0 mm 2 m/s 763 mmHg 61%
    23:00 +18°C° 0 mm 3 m/s 762 mmHg 59%
    Mostrar mais